sat.trackr.live / text

‹ back to catalog

STARLINK-30805

NORAD 58214 · 2023-170J

PAYLOAD ACTIVE UNKNOWN

§ Identity

Operator
Country
US
Launch date
2023-11-03
Launch site
AFETR
Launch vehicle
Mass (kg)
RCS (m²)

Purposes: comms

External: N2YO · Heavens-Above · Gunter

§ Orbital elements

Epoch: 2026-09-20T11:33:44.124480Z

Period
94.27 min
Inclination
43.0066°
Eccentricity
0.0001933
Mean motion
15.27582948 rev/d
Perigee alt
481.7 km
Apogee alt
484.4 km
Semi-major
6,861.2 km
B*
1.3012e-5
RAAN
173.8628°
Arg perigee
255.4821°
Mean anomaly
104.5816°
Rev number
16,009

§ Raw data

STARLINK-308051 58214U 23170J   26263.48176070  .00000096  00000+0  13012-4 0  99902 58214  43.0066 173.8628 0001933 255.4821 104.5816 15.27582948160091

JSON: /api/v1/satellites/58214 · /tle

For live sub-satellite position, see the globe view (requires WebGL).

§ Visibility from observer

Set your observer location to see the next 7 days of passes ≥ 10°. The values pass through the URL so the page stays shareable.

No JS? Fill the form by hand. The geolocation button needs JavaScript.